Hourly Data Report for September 29, 2017

All times are specified in Local Standard Time (LST). Add 1 hour to adjust for Daylight Saving Time where and when it is observed.

POND INLET A
NUNAVUT

72°41'22.000" N
77°58'08.000" W
61.60 m
2403206
71095
YIO

Related Data

No related data is available for this station

Download Data

Hourly Data (September 2017)
Hourly Data Report for September 29, 2017
Temp Definition
°C
Dew Point Temp Definition
°C
Rel Hum Definition
%
Wind Dir Definition
10's deg

Wind Spd Definition
km/h
Visibility Definition
km
Stn Press Definition
kPa
Hmdx Definition


Wind Chill Definition


Weather Definition


TIME
00:00 Legend Double Dagger -4.7 -6.4 88 18 15 16.1 99.71   -10 Snow
01:00 Legend Double Dagger -4.6 -6.3 88 17 17 4.8 99.73   -10 Snow
02:00 Legend Double Dagger -4.2 -5.6 90 18 21 4.8 99.75   -11 Freezing Rain,Fog
03:00 Legend Double Dagger -4.7 -6.1 90 17 21 16.1 99.74   -11 Snow
04:00 Legend Double Dagger -4.7 -5.8 92 16 24 3.2 99.77   -12 Snow
05:00 Legend Double Dagger -4.5 -5.6 92 17 22 4.0 99.79   -11 Snow
06:00 Legend Double Dagger -4.6 -5.7 92 16 18 2.4 99.79   -11 Snow
07:00 Legend Double Dagger -4.4 -5.4 93 17 21 2.4 99.79   -11 Snow
08:00 Legend Double Dagger -4.3 -5.6 91 16 21 16.1 99.78   -11 LegendNANA
09:00 Legend Double Dagger -3.9 -5.2 91 16 18 16.1 99.77   -10 LegendNANA
10:00 Legend Double Dagger -3.7 -5.3 89 16 18 16.1 99.75   -10 LegendNANA
11:00 Legend Double Dagger -3.3 -4.9 89 16 17 4.8 99.77   -9 Fog
12:00 Legend Double Dagger -3.5 -5.1 89 16 21 4.8 99.75   -10 Snow
13:00 Legend Double Dagger -4.1 -5.7 89 16 18 9.7 99.76   -10 Snow
14:00 Legend Double Dagger -3.9 -5.4 89 15 15 16.1 99.76   -9 Snow
15:00 Legend Double Dagger -3.9 -5.5 89 15 15 11.3 99.76   -9 Snow
16:00 Legend Double Dagger -4.2 -5.8 89 14 13 16.1 99.78   -9 Snow
17:00 Legend Double Dagger -4.4 -6.2 87 11 5 16.1 99.81   -7 Snow
18:00 Legend Double Dagger -6.1 -7.2 92 6 4 16.1 99.84   -8 LegendNANA
19:00 Legend Double Dagger -8.0 -9.7 87 10 4 16.1 99.86   -10 LegendNANA
20:00 Legend Double Dagger -7.5 -8.2 95 8 9 16.1 99.88   -12 LegendNANA
21:00 Legend Double Dagger -5.2 -5.9 95 7 9 16.1 99.91   -9 LegendNANA
22:00 Legend Double Dagger -7.6 -8.8 91 15 17 16.1 99.93   -14 LegendNANA
23:00 Legend Double Dagger -5.8 -7.0 91 6 4 16.1 99.94   -8 LegendNANA

Notes on Data Quality.

Legend

  • E = Estimated
  • M = Missing
  • NA = Not Available
  • ‡ = Partner data that is not subject to review by the National Climate Archives
Date modified: